| time (UTC) | temp C | wind direction | speed KPH | gust KPH | rain 1hr cm | rain 24hr cm | rain mn cm | humidity % | barometer mb |
| 20260505212036 | 20 | 186 | 25.7 | 51.5 | 0.00 | 0.00 | 0.00 | 56 | 1003.0 |
| 20260505211552 | 20 | 171 | 25.7 | 54.7 | 0.00 | 0.00 | 0.00 | 56 | 1002.9 |
| 20260505211039 | 20 | 140 | 22.5 | 54.7 | 0.00 | 0.00 | 0.00 | 56 | 1003.0 |
| 20260505210537 | 20 | 182 | 32.2 | 59.5 | 0.00 | 0.00 | 0.00 | 55 | 1003.2 |
| 20260505210050 | 20 | 192 | 24.1 | 59.5 | 0.00 | 0.00 | 0.00 | 55 | 1003.4 |
| 20260505205534 | 21 | 217 | 22.5 | 57.9 | 0.00 | 0.00 | 0.00 | 54 | 1003.4 |
| 20260505205037 | 21 | 166 | 25.7 | 46.7 | 0.00 | 0.00 | 0.00 | 53 | 1003.2 |
| 20260505204555 | 22 | 219 | 20.9 | 35.4 | 0.00 | 0.00 | 0.00 | 53 | 1003.3 |
| 20260505204037 | 22 | 187 | 16.1 | 45.1 | 0.00 | 0.00 | 0.00 | 52 | 1003.2 |
| 20260505203536 | 22 | 183 | 17.7 | 45.1 | 0.00 | 0.00 | 0.00 | 52 | 1003.1 |
| 20260505203048 | 22 | 174 | 12.9 | 40.2 | 0.00 | 0.00 | 0.00 | 52 | 1003.2 |
| 20260505202535 | 22 | 211 | 19.3 | 45.1 | 0.00 | 0.00 | 0.00 | 52 | 1003.0 |
| 20260505202036 | 22 | 200 | 25.7 | 45.1 | 0.00 | 0.00 | 0.00 | 52 | 1003.2 |
| 20260505201551 | 22 | 196 | 19.3 | 40.2 | 0.00 | 0.00 | 0.00 | 52 | 1003.3 |
| 20260505201038 | 22 | 200 | 19.3 | 40.2 | 0.00 | 0.00 | 0.00 | 53 | 1003.3 |
| 20260505200538 | 22 | 166 | 17.7 | 40.2 | 0.00 | 0.00 | 0.00 | 53 | 1003.4 |
| 20260505200049 | 22 | 164 | 17.7 | 37.0 | 0.00 | 0.00 | 0.00 | 52 | 1003.5 |
| 20260505195538 | 22 | 191 | 19.3 | 37.0 | 0.00 | 0.00 | 0.00 | 54 | 1003.5 |
| 20260505195033 | 22 | 178 | 19.3 | 37.0 | 0.00 | 0.00 | 0.00 | 52 | 1003.6 |
| 20260505194550 | 22 | 163 | 17.7 | 37.0 | 0.00 | 0.00 | 0.00 | 53 | 1003.6 |
| 20260505194037 | 22 | 155 | 16.1 | 48.3 | 0.00 | 0.00 | 0.00 | 53 | 1003.6 |
| 20260505193537 | 22 | 133 | 17.7 | 48.3 | 0.00 | 0.00 | 0.00 | 53 | 1003.7 |
| 20260505193048 | 22 | 177 | 20.9 | 41.8 | 0.00 | 0.00 | 0.00 | 54 | 1003.8 |
| 20260505192539 | 22 | 159 | 20.9 | 40.2 | 0.00 | 0.00 | 0.00 | 53 | 1003.7 |
| 20260505192036 | 22 | 137 | 14.5 | 32.2 | 0.00 | 0.00 | 0.00 | 54 | 1003.8 |
| 20260505191607 | 22 | 160 | 14.5 | 43.5 | 0.00 | 0.00 | 0.00 | 53 | 1004.0 |
| 20260505191037 | 22 | 160 | 22.5 | 43.5 | 0.00 | 0.00 | 0.00 | 52 | 1004.0 |
| 20260505190540 | 22 | 139 | 16.1 | 41.8 | 0.00 | 0.00 | 0.00 | 54 | 1004.2 |
| 20260505190045 | 22 | 144 | 19.3 | 43.5 | 0.00 | 0.00 | 0.00 | 52 | 1004.3 |
| 20260505185537 | 22 | 131 | 22.5 | 43.5 | 0.00 | 0.00 | 0.00 | 52 | 1004.3 |
| 20260505185038 | 22 | 158 | 16.1 | 37.0 | 0.00 | 0.00 | 0.00 | 51 | 1004.4 |
| 20260505184550 | 22 | 143 | 19.3 | 37.0 | 0.00 | 0.00 | 0.00 | 51 | 1004.3 |
| 20260505184037 | 22 | 182 | 14.5 | 37.0 | 0.00 | 0.00 | 0.00 | 53 | 1004.3 |
| 20260505183536 | 22 | 221 | 17.7 | 43.5 | 0.00 | 0.00 | 0.00 | 50 | 1004.3 |
| 20260505183050 | 22 | 186 | 22.5 | 43.5 | 0.00 | 0.00 | 0.00 | 52 | 1004.4 |
| 20260505182536 | 22 | 193 | 17.7 | 37.0 | 0.00 | 0.00 | 0.00 | 52 | 1004.4 |
| 20260505182038 | 22 | 153 | 19.3 | 37.0 | 0.00 | 0.00 | 0.00 | 53 | 1004.3 |
| 20260505181544 | 22 | 69 | 12.9 | 29.0 | 0.00 | 0.00 | 0.00 | 53 | 1004.5 |
| 20260505181037 | 22 | 180 | 11.3 | 29.0 | 0.00 | 0.00 | 0.00 | 53 | 1004.6 |
| 20260505180536 | 22 | 159 | 9.7 | 29.0 | 0.00 | 0.00 | 0.00 | 54 | 1004.6 |
| 20260505180105 | 23 | 146 | 12.9 | 22.5 | 0.00 | 0.00 | 0.00 | 51 | 1004.7 |
| 20260505175536 | 23 | 146 | 11.3 | 33.8 | 0.00 | 0.03 | 0.00 | 51 | 1004.7 |
| 20260505175036 | 22 | 112 | 19.3 | 33.8 | 0.00 | 0.03 | 0.00 | 52 | 1004.8 |
| 20260505174559 | 22 | 206 | 17.7 | 37.0 | 0.00 | 0.03 | 0.00 | 52 | 1004.8 |
| 20260505174038 | 22 | 167 | 16.1 | 37.0 | 0.00 | 0.03 | 0.00 | 53 | 1005.0 |
| 20260505173536 | 22 | 124 | 16.1 | 37.0 | 0.00 | 0.03 | 0.00 | 54 | 1004.9 |
| 20260505173046 | 22 | 153 | 11.3 | 30.6 | 0.00 | 0.03 | 0.00 | 53 | 1005.0 |
| 20260505172535 | 22 | 142 | 17.7 | 30.6 | 0.00 | 0.03 | 0.00 | 53 | 1005.2 |
| 20260505172033 | 22 | 198 | 16.1 | 30.6 | 0.00 | 0.03 | 0.00 | 54 | 1005.3 |
| 20260505171551 | 21 | 153 | 11.3 | 30.6 | 0.00 | 0.03 | 0.00 | 53 | 1005.2 |
| 20260505171037 | 21 | 172 | 11.3 | 25.7 | 0.00 | 0.03 | 0.00 | 56 | 1005.3 |
| 20260505170540 | 21 | 196 | 16.1 | 27.4 | 0.00 | 0.03 | 0.00 | 55 | 1005.5 |
| 20260505170049 | 21 | 138 | 17.7 | 29.0 | 0.00 | 0.03 | 0.00 | 54 | 1005.5 |
| 20260505165537 | 21 | 158 | 14.5 | 30.6 | 0.00 | 0.03 | 0.00 | 55 | 1005.7 |
| 20260505165034 | 21 | 181 | 11.3 | 30.6 | 0.00 | 0.03 | 0.00 | 57 | 1005.9 |
| 20260505164552 | 20 | 197 | 11.3 | 24.1 | 0.00 | 0.03 | 0.00 | 57 | 1005.8 |
| 20260505164037 | 20 | 124 | 11.3 | 24.1 | 0.00 | 0.03 | 0.00 | 57 | 1006.2 |
| 20260505163538 | 20 | 123 | 9.7 | 22.5 | 0.00 | 0.03 | 0.00 | 57 | 1006.1 |
| 20260505163049 | 20 | 141 | 9.7 | 20.9 | 0.00 | 0.03 | 0.00 | 58 | 1006.2 |
| 20260505162533 | 20 | 150 | 11.3 | 29.0 | 0.00 | 0.03 | 0.00 | 58 | 1006.3 |
| 20260505162036 | 20 | 144 | 4.8 | 29.0 | 0.00 | 0.03 | 0.00 | 62 | 1006.3 |
| 20260505161551 | 19 | 179 | 11.3 | 29.0 | 0.00 | 0.03 | 0.00 | 59 | 1006.4 |
| 20260505161036 | 19 | 192 | 11.3 | 29.0 | 0.00 | 0.03 | 0.00 | 59 | 1006.5 |
| 20260505160537 | 19 | 140 | 14.5 | 33.8 | 0.00 | 0.03 | 0.00 | 58 | 1006.8 |
| 20260505153043 | 20 | 151 | 17.7 | 29.0 | 0.00 | 0.03 | 0.00 | 54 | 1007.2 |
| 20260505152537 | 20 | 174 | 9.7 | 29.0 | 0.00 | 0.03 | 0.00 | 55 | 1007.3 |
| 20260505152040 | 20 | 175 | 16.1 | 29.0 | 0.00 | 0.03 | 0.00 | 55 | 1007.3 |
| 20260505151546 | 20 | 186 | 14.5 | 29.0 | 0.00 | 0.03 | 0.00 | 55 | 1007.3 |
| 20260505151036 | 19 | 205 | 11.3 | 33.8 | 0.00 | 0.03 | 0.00 | 55 | 1007.3 |
| 20260505150536 | 20 | 174 | 11.3 | 33.8 | 0.00 | 0.03 | 0.00 | 56 | 1007.2 |
| 20260505140536 | 17 | 177 | 11.3 | 27.4 | 0.00 | 0.03 | 0.00 | 58 | 1007.3 |
| 20260505125036 | 14 | 157 | 8.0 | 19.3 | 0.00 | 0.03 | 0.00 | 67 | 1007.6 |
| 20260505124550 | 14 | 188 | 9.7 | 22.5 | 0.00 | 0.03 | 0.00 | 67 | 1007.6 |
| 20260505124037 | 14 | 169 | 11.3 | 24.1 | 0.00 | 0.03 | 0.00 | 67 | 1007.6 |
| 20260505123537 | 14 | 163 | 11.3 | 24.1 | 0.00 | 0.03 | 0.00 | 67 | 1007.7 |
| 20260505123058 | 14 | 198 | 9.7 | 22.5 | 0.00 | 0.03 | 0.00 | 68 | 1007.7 |
| 20260505122536 | 13 | 161 | 9.7 | 22.5 | 0.00 | 0.03 | 0.00 | 68 | 1007.6 |
| 20260505122036 | 13 | 202 | 9.7 | 22.5 | 0.00 | 0.03 | 0.00 | 69 | 1007.8 |
| 20260505121547 | 13 | 160 | 9.7 | 19.3 | 0.00 | 0.03 | 0.00 | 70 | 1007.8 |
| 20260505121036 | 13 | 215 | 9.7 | 17.7 | 0.00 | 0.03 | 0.00 | 70 | 1007.9 |
| 20260505120536 | 13 | 163 | 9.7 | 17.7 | 0.00 | 0.03 | 0.00 | 70 | 1008.0 |
| 20260505120045 | 13 | 196 | 9.7 | 22.5 | 0.00 | 0.03 | 0.00 | 70 | 1007.9 |
| 20260505115536 | 12 | 190 | 9.7 | 25.7 | 0.00 | 0.03 | 0.00 | 71 | 1007.9 |
| 20260505115038 | 12 | 211 | 14.5 | 25.7 | 0.00 | 0.03 | 0.00 | 71 | 1007.9 |
| 20260505114544 | 12 | 192 | 14.5 | 22.5 | 0.00 | 0.03 | 0.00 | 71 | 1007.8 |
| 20260505114037 | 12 | 205 | 9.7 | 20.9 | 0.00 | 0.03 | 0.00 | 72 | 1008.1 |
| 20260505113536 | 12 | 211 | 6.4 | 16.1 | 0.00 | 0.03 | 0.00 | 73 | 1008.1 |
| 20260505113047 | 12 | 198 | 8.0 | 19.3 | 0.00 | 0.03 | 0.00 | 73 | 1008.0 |
| 20260505112536 | 11 | 220 | 8.0 | 19.3 | 0.00 | 0.03 | 0.00 | 74 | 1007.8 |
| 20260505112039 | 11 | 196 | 6.4 | 14.5 | 0.00 | 0.03 | 0.00 | 75 | 1007.7 |
| 20260505111544 | 11 | 167 | 6.4 | 14.5 | 0.00 | 0.03 | 0.00 | 76 | 1007.9 |
| 20260505111036 | 11 | 220 | 4.8 | 14.5 | 0.00 | 0.03 | 0.00 | 76 | 1008.0 |
| 20260505110538 | 10 | 216 | 8.0 | 14.5 | 0.00 | 0.03 | 0.00 | 77 | 1007.9 |
| 20260505102036 | 8 | 234 | 4.8 | 11.3 | 0.00 | 0.03 | 0.00 | 85 | 1007.6 |
| 20260505101601 | 8 | 213 | 1.6 | 4.8 | 0.00 | 0.03 | 0.00 | 86 | 1007.7 |
| 20260505101036 | 7 | 211 | 1.6 | 6.4 | 0.00 | 0.03 | 0.00 | 87 | 1007.5 |
| 20260505100536 | 7 | 211 | 1.6 | 8.0 | 0.00 | 0.03 | 0.00 | 86 | 1007.6 |
| 20260505100101 | 7 | 211 | 3.2 | 8.0 | 0.00 | 0.03 | 0.00 | 86 | 1007.6 |
| 20260505095536 | 7 | 233 | 1.6 | 4.8 | 0.00 | 0.03 | 0.00 | 87 | 1007.6 |
| 20260505095036 | 7 | 0 | 0.0 | 4.8 | 0.00 | 0.03 | 0.00 | 87 | 1007.6 |
| 20260505094549 | 7 | 217 | 0.0 | 3.2 | 0.00 | 0.03 | 0.00 | 88 | 1007.7 |
| 20260505094036 | 7 | 217 | 1.6 | 3.2 | 0.00 | 0.03 | 0.00 | 88 | 1007.7 |
| 20260505093536 | 7 | 0 | 0.0 | 3.2 | 0.00 | 0.03 | 0.00 | 88 | 1007.5 |
| 20260505093059 | 7 | 0 | 0.0 | 4.8 | 0.00 | 0.03 | 0.00 | 88 | 1007.6 |
| 20260505092537 | 7 | 216 | 1.6 | 4.8 | 0.00 | 0.03 | 0.00 | 89 | 1007.5 |
| 20260505092037 | 7 | 216 | 0.0 | 3.2 | 0.00 | 0.03 | 0.00 | 89 | 1007.6 |
| 20260505091551 | 7 | 216 | 0.0 | 3.2 | 0.00 | 0.03 | 0.00 | 89 | 1007.6 |
| 20260505091036 | 7 | 216 | 0.0 | 3.2 | 0.00 | 0.03 | 0.00 | 89 | 1007.6 |
| 20260505090538 | 7 | 0 | 0.0 | 3.2 | 0.00 | 0.03 | 0.00 | 90 | 1007.5 |
| 20260505090049 | 6 | 0 | 0.0 | 4.8 | 0.00 | 0.03 | 0.00 | 91 | 1007.6 |
| 20260505085537 | 6 | 0 | 0.0 | 6.4 | 0.00 | 0.03 | 0.00 | 92 | 1007.6 |
| 20260505085039 | 6 | 216 | 3.2 | 6.4 | 0.00 | 0.03 | 0.00 | 91 | 1007.7 |
| 20260505084548 | 6 | 182 | 1.6 | 6.4 | 0.00 | 0.03 | 0.00 | 91 | 1007.7 |
| 20260505084037 | 6 | 160 | 0.0 | 3.2 | 0.00 | 0.03 | 0.00 | 91 | 1007.7 |
| 20260505083536 | 6 | 160 | 0.0 | 1.6 | 0.00 | 0.03 | 0.00 | 91 | 1007.7 |
| 20260505083048 | 5 | 0 | 0.0 | 1.6 | 0.00 | 0.03 | 0.00 | 91 | 1007.8 |
| 20260505082536 | 5 | 160 | 0.0 | 1.6 | 0.00 | 0.03 | 0.00 | 91 | 1007.7 |
| 20260505082036 | 5 | 0 | 0.0 | 1.6 | 0.00 | 0.03 | 0.00 | 91 | 1007.7 |
| 20260505081558 | 5 | 0 | 0.0 | 1.6 | 0.00 | 0.03 | 0.00 | 91 | 1007.8 |
| 20260505081036 | 5 | 0 | 0.0 | 3.2 | 0.00 | 0.03 | 0.00 | 91 | 1007.7 |
| 20260505080536 | 5 | 0 | 0.0 | 3.2 | 0.00 | 0.03 | 0.00 | 91 | 1007.7 |
| 20260505080059 | 5 | 0 | 0.0 | 3.2 | 0.00 | 0.03 | 0.00 | 90 | 1007.7 |
| 20260505075535 | 5 | 0 | 0.0 | 3.2 | 0.00 | 0.03 | 0.00 | 90 | 1007.8 |
| 20260505075036 | 5 | 160 | 0.0 | 3.2 | 0.00 | 0.03 | 0.00 | 90 | 1007.8 |
| 20260505074549 | 5 | 160 | 0.0 | 8.0 | 0.00 | 0.03 | 0.00 | 90 | 1007.9 |
| 20260505074037 | 5 | 0 | 0.0 | 8.0 | 0.00 | 0.03 | 0.00 | 90 | 1007.8 |
| 20260505073537 | 5 | 0 | 0.0 | 4.8 | 0.00 | 0.03 | 0.00 | 89 | 1007.8 |
| 20260505073043 | 5 | 241 | 0.0 | 3.2 | 0.00 | 0.03 | 0.00 | 89 | 1007.8 |
| 20260505072537 | 5 | 0 | 0.0 | 1.6 | 0.00 | 0.03 | 0.00 | 89 | 1007.8 |
| 20260505072036 | 5 | 0 | 0.0 | 3.2 | 0.00 | 0.03 | 0.00 | 89 | 1007.8 |
| 20260505071552 | 5 | 0 | 0.0 | 3.2 | 0.00 | 0.03 | 0.00 | 88 | 1007.8 |
| 20260505071036 | 6 | 0 | 0.0 | 3.2 | 0.00 | 0.03 | 0.00 | 88 | 1007.8 |
| 20260505070536 | 6 | 0 | 0.0 | 3.2 | 0.00 | 0.03 | 0.00 | 88 | 1007.8 |
| 20260505070047 | 6 | 0 | 0.0 | 1.6 | 0.00 | 0.03 | 0.00 | 87 | 1007.8 |
| 20260505065535 | 6 | 0 | 0.0 | 1.6 | 0.00 | 0.03 | 0.00 | 88 | 1007.7 |
| 20260505065034 | 6 | 0 | 0.0 | 1.6 | 0.00 | 0.03 | 0.00 | 88 | 1007.8 |
| 20260505064545 | 6 | 0 | 0.0 | 0.0 | 0.00 | 0.03 | 0.00 | 88 | 1007.7 |
| 20260505064034 | 6 | 0 | 0.0 | 1.6 | 0.00 | 0.03 | 0.00 | 87 | 1007.7 |
| 20260505063533 | 6 | 0 | 0.0 | 3.2 | 0.00 | 0.03 | 0.00 | 87 | 1007.7 |
| 20260505063049 | 6 | 0 | 0.0 | 3.2 | 0.00 | 0.03 | 0.00 | 87 | 1007.7 |
| 20260505062533 | 6 | 0 | 0.0 | 1.6 | 0.00 | 0.03 | 0.00 | 87 | 1007.7 |
| 20260505062036 | 6 | 0 | 0.0 | 1.6 | 0.00 | 0.03 | 0.00 | 87 | 1007.6 |
| 20260505061553 | 6 | 0 | 0.0 | 3.2 | 0.00 | 0.03 | 0.00 | 86 | 1007.6 |
| 20260505061032 | 6 | 0 | 0.0 | 6.4 | 0.00 | 0.03 | 0.00 | 86 | 1007.7 |
| 20260505060532 | 6 | 219 | 1.6 | 6.4 | 0.00 | 0.03 | 0.00 | 85 | 1007.7 |
| 20260505060049 | 7 | 188 | 1.6 | 4.8 | 0.00 | 0.03 | 0.00 | 85 | 1007.7 |
| 20260505055535 | 7 | 188 | 1.6 | 4.8 | 0.00 | 0.03 | 0.00 | 84 | 1007.7 |
| 20260505055035 | 7 | 188 | 1.6 | 4.8 | 0.00 | 0.03 | 0.00 | 84 | 1007.7 |
| 20260505054548 | 7 | 188 | 1.6 | 4.8 | 0.00 | 0.03 | 0.00 | 83 | 1007.7 |
| 20260505054036 | 7 | 182 | 1.6 | 3.2 | 0.00 | 0.03 | 0.00 | 82 | 1007.7 |
| 20260505053535 | 7 | 253 | 0.0 | 3.2 | 0.00 | 0.03 | 0.00 | 81 | 1007.8 |
| 20260505053048 | 8 | 0 | 0.0 | 3.2 | 0.00 | 0.03 | 0.00 | 81 | 1007.8 |
| 20260505052535 | 8 | 0 | 0.0 | 4.8 | 0.00 | 0.03 | 0.00 | 80 | 1007.7 |
| 20260505052036 | 8 | 253 | 0.0 | 4.8 | 0.00 | 0.03 | 0.00 | 79 | 1007.7 |
| 20260505051546 | 8 | 253 | 0.0 | 6.4 | 0.00 | 0.03 | 0.00 | 78 | 1007.6 |
| 20260505051032 | 9 | 253 | 1.6 | 8.0 | 0.00 | 0.03 | 0.00 | 79 | 1007.6 |
| 20260505050534 | 9 | 202 | 3.2 | 9.7 | 0.00 | 0.03 | 0.00 | 79 | 1007.6 |
| 20260505041542 | 8 | 199 | 4.8 | 9.7 | 0.00 | 0.03 | 0.00 | 85 | 1007.4 |
| 20260505041033 | 7 | 219 | 4.8 | 9.7 | 0.00 | 0.03 | 0.00 | 86 | 1007.4 |
| 20260505040532 | 7 | 214 | 1.6 | 6.4 | 0.00 | 0.03 | 0.00 | 86 | 1007.3 |
| 20260505040044 | 7 | 214 | 3.2 | 6.4 | 0.00 | 0.03 | 0.00 | 86 | 1007.3 |
| 20260505035537 | 7 | 0 | 0.0 | 3.2 | 0.00 | 0.03 | 0.03 | 86 | 1007.3 |
| 20260505035036 | 7 | 0 | 0.0 | 0.0 | 0.00 | 0.03 | 0.03 | 85 | 1007.3 |
| 20260505034551 | 8 | 0 | 0.0 | 0.0 | 0.00 | 0.03 | 0.03 | 85 | 1007.2 |
| 20260505034036 | 8 | 0 | 0.0 | 1.6 | 0.00 | 0.03 | 0.03 | 85 | 1007.2 |
| 20260505033536 | 8 | 0 | 0.0 | 1.6 | 0.00 | 0.03 | 0.03 | 85 | 1007.0 |
| 20260505033051 | 8 | 0 | 0.0 | 1.6 | 0.00 | 0.03 | 0.03 | 85 | 1007.0 |
| 20260505032537 | 8 | 0 | 0.0 | 3.2 | 0.00 | 0.03 | 0.03 | 85 | 1007.0 |
| 20260505032036 | 8 | 0 | 0.0 | 3.2 | 0.00 | 0.03 | 0.03 | 84 | 1007.0 |
| 20260505031552 | 8 | 0 | 0.0 | 8.0 | 0.00 | 0.03 | 0.03 | 84 | 1007.1 |
| 20260505031036 | 8 | 159 | 0.0 | 8.0 | 0.00 | 0.03 | 0.03 | 84 | 1007.1 |
| 20260505030536 | 8 | 159 | 1.6 | 8.0 | 0.00 | 0.03 | 0.03 | 84 | 1007.0 |
| 20260505030050 | 8 | 0 | 1.6 | 6.4 | 0.00 | 0.03 | 0.03 | 84 | 1007.1 |
| 20260505025537 | 8 | 212 | 0.0 | 4.8 | 0.00 | 0.03 | 0.03 | 84 | 1007.0 |
| 20260505025036 | 8 | 0 | 0.0 | 4.8 | 0.00 | 0.03 | 0.03 | 85 | 1007.0 |
| 20260505024549 | 8 | 250 | 0.0 | 3.2 | 0.00 | 0.03 | 0.03 | 86 | 1007.1 |
| 20260505024036 | 8 | 250 | 0.0 | 3.2 | 0.00 | 0.03 | 0.03 | 86 | 1007.2 |
| 20260505023536 | 8 | 250 | 0.0 | 4.8 | 0.00 | 0.03 | 0.03 | 87 | 1007.1 |
| 20260505023051 | 8 | 250 | 1.6 | 4.8 | 0.00 | 0.03 | 0.03 | 87 | 1007.1 |
| 20260505022539 | 8 | 0 | 0.0 | 3.2 | 0.00 | 0.03 | 0.03 | 86 | 1007.1 |
| 20260505022036 | 8 | 0 | 1.6 | 3.2 | 0.00 | 0.03 | 0.03 | 86 | 1007.2 |
| 20260505021549 | 8 | 0 | 0.0 | 0.0 | 0.00 | 0.03 | 0.03 | 85 | 1007.0 |
| 20260505021036 | 8 | 0 | 0.0 | 0.0 | 0.00 | 0.03 | 0.03 | 86 | 1007.0 |
| 20260505020536 | 8 | 0 | 0.0 | 1.6 | 0.00 | 0.03 | 0.03 | 85 | 1007.1 |
| 20260505020048 | 8 | 0 | 0.0 | 1.6 | 0.00 | 0.03 | 0.03 | 85 | 1007.1 |
| 20260505015537 | 8 | 0 | 0.0 | 3.2 | 0.00 | 0.03 | 0.03 | 85 | 1007.0 |
| 20260505015036 | 8 | 0 | 0.0 | 3.2 | 0.00 | 0.03 | 0.03 | 85 | 1007.0 |
| 20260505014555 | 9 | 0 | 0.0 | 1.6 | 0.00 | 0.03 | 0.03 | 84 | 1006.8 |
| 20260505014037 | 9 | 0 | 0.0 | 1.6 | 0.00 | 0.03 | 0.03 | 83 | 1006.7 |
| 20260505013536 | 9 | 0 | 0.0 | 1.6 | 0.00 | 0.03 | 0.03 | 83 | 1006.7 |
| 20260505013047 | 9 | 0 | 0.0 | 1.6 | 0.00 | 0.03 | 0.03 | 83 | 1006.6 |
| 20260505012536 | 9 | 0 | 0.0 | 3.2 | 0.00 | 0.03 | 0.03 | 82 | 1006.7 |
| 20260505012036 | 9 | 0 | 0.0 | 3.2 | 0.00 | 0.03 | 0.03 | 82 | 1006.7 |
| 20260505011554 | 10 | 250 | 0.0 | 3.2 | 0.00 | 0.03 | 0.03 | 82 | 1006.7 |
| 20260505011036 | 10 | 250 | 1.6 | 3.2 | 0.00 | 0.03 | 0.03 | 81 | 1006.6 |
| 20260505010539 | 10 | 0 | 0.0 | 3.2 | 0.00 | 0.03 | 0.03 | 81 | 1006.6 |
| 20260505010109 | 10 | 0 | 0.0 | 3.2 | 0.00 | 0.03 | 0.03 | 81 | 1006.6 |
| 20260505005538 | 10 | 250 | 1.6 | 3.2 | 0.00 | 0.03 | 0.03 | 81 | 1006.6 |
| 20260505005037 | 10 | 0 | 0.0 | 3.2 | 0.00 | 0.03 | 0.03 | 80 | 1006.7 |
| 20260505004544 | 10 | 0 | 0.0 | 3.2 | 0.00 | 0.03 | 0.03 | 79 | 1006.6 |
| 20260505004036 | 10 | 250 | 0.0 | 4.8 | 0.00 | 0.03 | 0.03 | 79 | 1006.6 |
| 20260505003536 | 10 | 250 | 0.0 | 4.8 | 0.00 | 0.03 | 0.03 | 78 | 1006.3 |
| 20260505003049 | 11 | 250 | 1.6 | 3.2 | 0.00 | 0.03 | 0.03 | 79 | 1006.2 |
| 20260505002536 | 11 | 0 | 0.0 | 0.0 | 0.00 | 0.03 | 0.03 | 77 | 1006.1 |
| 20260505002036 | 11 | 0 | 0.0 | 0.0 | 0.00 | 0.03 | 0.03 | 77 | 1006.1 |
| 20260505001545 | 11 | 0 | 0.0 | 3.2 | 0.00 | 0.03 | 0.03 | 76 | 1006.0 |
| 20260505001037 | 11 | 0 | 0.0 | 3.2 | 0.00 | 0.03 | 0.03 | 75 | 1005.9 |
| 20260505000538 | 12 | 0 | 0.0 | 0.0 | 0.00 | 0.03 | 0.03 | 74 | 1005.8 |
| 20260505000050 | 12 | 0 | 0.0 | 3.2 | 0.00 | 0.03 | 0.03 | 74 | 1005.7 |
| 20260504235536 | 12 | 0 | 0.0 | 3.2 | 0.00 | 0.03 | 0.03 | 73 | 1005.6 |
| 20260504235036 | 12 | 0 | 1.6 | 3.2 | 0.00 | 0.03 | 0.03 | 72 | 1005.4 |
| 20260504234543 | 13 | 250 | 0.0 | 3.2 | 0.00 | 0.03 | 0.03 | 71 | 1005.4 |
| 20260504234036 | 13 | 250 | 1.6 | 4.8 | 0.00 | 0.03 | 0.03 | 70 | 1005.2 |
| 20260504233536 | 14 | 0 | 0.0 | 4.8 | 0.00 | 0.03 | 0.03 | 65 | 1005.2 |
| 20260504233041 | 15 | 250 | 1.6 | 4.8 | 0.00 | 0.03 | 0.03 | 61 | 1005.2 |
| 20260504232536 | 15 | 0 | 0.0 | 0.0 | 0.00 | 0.03 | 0.03 | 64 | 1005.2 |
| 20260504232036 | 16 | 0 | 0.0 | 0.0 | 0.00 | 0.03 | 0.03 | 62 | 1005.2 |
| 20260504231548 | 16 | 0 | 0.0 | 0.0 | 0.00 | 0.03 | 0.03 | 58 | 1005.2 |
| 20260504231034 | 17 | 0 | 0.0 | 3.2 | 0.00 | 0.03 | 0.03 | 57 | 1005.2 |
| 20260504230534 | 17 | 0 | 0.0 | 4.8 | 0.00 | 0.03 | 0.03 | 53 | 1005.1 |
| 20260504230049 | 17 | 0 | 1.6 | 4.8 | 0.00 | 0.03 | 0.03 | 51 | 1005.0 |
| 20260504225536 | 17 | 250 | 0.0 | 4.8 | 0.00 | 0.03 | 0.03 | 51 | 1005.0 |
| 20260504225037 | 18 | 250 | 1.6 | 4.8 | 0.00 | 0.03 | 0.03 | 50 | 1005.0 |
| 20260504224546 | 18 | 0 | 1.6 | 4.8 | 0.00 | 0.03 | 0.03 | 46 | 1005.1 |
| 20260504224035 | 18 | 250 | 1.6 | 6.4 | 0.00 | 0.03 | 0.03 | 47 | 1005.1 |
| 20260504223537 | 18 | 250 | 3.2 | 9.7 | 0.00 | 0.03 | 0.03 | 46 | 1005.0 |
| 20260504223100 | 18 | 250 | 3.2 | 9.7 | 0.00 | 0.03 | 0.03 | 48 | 1004.9 |
| 20260504222535 | 18 | 265 | 4.8 | 9.7 | 0.00 | 0.03 | 0.03 | 47 | 1005.0 |
| 20260504222034 | 17 | 213 | 6.4 | 9.7 | 0.00 | 0.03 | 0.03 | 47 | 1005.0 |
| 20260504221601 | 17 | 202 | 3.2 | 8.0 | 0.00 | 0.03 | 0.03 | 49 | 1005.1 |
| 20260504221034 | 17 | 0 | 3.2 | 14.5 | 0.00 | 0.03 | 0.03 | 48 | 1005.1 |
| 20260504220534 | 17 | 190 | 6.4 | 17.7 | 0.00 | 0.03 | 0.03 | 48 | 1005.0 |
| 20260504220055 | 17 | 248 | 4.8 | 17.7 | 0.00 | 0.03 | 0.03 | 48 | 1005.1 |
| 20260504215534 | 17 | 242 | 6.4 | 17.7 | 0.00 | 0.03 | 0.03 | 48 | 1005.1 |
| 20260504215034 | 17 | 236 | 6.4 | 17.7 | 0.00 | 0.03 | 0.03 | 48 | 1005.1 |
| 20260504214554 | 17 | 320 | 6.4 | 17.7 | 0.00 | 0.03 | 0.03 | 49 | 1005.2 |
| 20260504214035 | 17 | 232 | 4.8 | 25.7 | 0.00 | 0.03 | 0.03 | 48 | 1005.2 |
| 20260504213534 | 17 | 260 | 6.4 | 25.7 | 0.00 | 0.03 | 0.03 | 48 | 1005.2 |
| 20260504213100 | 17 | 267 | 11.3 | 25.7 | 0.00 | 0.03 | 0.03 | 48 | 1005.3 |
| 20260504212531 | 17 | 233 | 11.3 | 22.5 | 0.00 | 0.03 | 0.03 | 48 | 1005.2 |